Simultaneous Nadir Overpasses (SNOs) Predictions

Prediction of SNOs between METOP-A and NOAA-19 Satellite Orbit:

Table of predicted SNOs for the next 14.0 days since TLE Epoch: 8/15/2012
Index Date (METOP-A) Time (METOP-A) METOP-A Lat,Lon Date (NOAA-19) Time (NOAA-19) NOAA-19 Lat,Lon Distance(km) Time Diff (sec)
1 08/23/2012 13:54:22 73.32, -35.50 08/23/2012 13:53:09 73.37, -36.30 26.19 73
2 08/23/2012 14:45:07 -73.15, 131.45 08/23/2012 14:44:01 -73.13, 131.50 2.39 66
3 08/23/2012 15:35:48 73.10, -61.33 08/23/2012 15:35:09 73.11, -61.25 3.17 39
4 08/23/2012 16:26:29 -73.13, 106.07 08/23/2012 16:26:06 -73.12, 105.99 2.58 23
5 08/23/2012 17:17:10 73.08, -86.71 08/23/2012 17:17:13 73.06, -86.64 3.27 3
6 08/23/2012 18:07:52 -73.06, 80.58 08/23/2012 18:08:10 -73.07, 80.60 1.15 18
7 08/23/2012 18:58:32 73.06,-112.10 08/23/2012 18:59:18 73.05,-112.14 1.86 46
8 08/23/2012 19:49:14 -73.04, 55.19 08/23/2012 19:50:14 -73.01, 55.20 3.16 60
9 08/23/2012 20:40:05 72.48,-138.64 08/23/2012 20:41:13 72.54,-136.58 69.03 68




NCC Satellite Simultaneous Nadir Overpasses (SNOs) Prediction Service
